Volver al catálogo

FENGYUN 1C DEB

ActivoSSO
NORAD 31442·DEBRIS·🇨🇳 China

Lanzado May 10, 1999 desde Taiyuan Satellite Launch Center

Loading…

Próximos Pases (próximas 24 horas)

TLE

EnvejeciendoSource: Space-Track

Época: Sep 10, 2026, 00:31 UTC

1 31442U 99025BUE 26253.02163168  .00000516  00000-0  19223-3 0  9996
2 31442  98.5190 340.2132 0077291 287.7374  71.5386 14.34470718 12492

Sigue FENGYUN 1C DEB en tiempo real con AllMySat

Download on the App Store